Terminal Aerodrome Forecast
Issued by NWS Louisville, KY

Home | Current Version | Previous Version | Text Only | Print | Product List | Glossary On
Versions: 1 2 3 4 5 6 7 8 9 10 11 12 13 14 15 16
261
FTUS43 KLMK 281121
TAFSDF
TAF
KSDF 281121Z 2812/0118 15010KT P6SM VCTS BKN040CB
     FM281400 18012G18KT 4SM -SHRA BR VCTS BKN012CB
     FM282300 19015KT P6SM OVC012
     FM010500 20017G25KT 4SM -SHRA BR VCTS OVC030CB
     FM011400 24019G27KT P6SM VCTS BKN050CB=

USA.gov is the U.S. government's official web portal to all federal, state and local government web resources and services.